Вернуться в каталог

HULIANWANG DIGUI-94

АктивенСвязьLEO
NORAD 66002·PAYLOAD·🇨🇳 China

Запущен Oct 16, 2025 с Wenchang Space Launch Site

Loading…

Ближайшие Пролёты (ближайшие 24 часа)

TLE

СвежийSource: Space-Track

Эпоха: Sep 14, 2026, 06:52 UTC

1 66002U 25231H   26257.28624230 -.00000101  00000-0  49217-4 0  9996
2 66002  50.0046 216.0516 0000349  44.8684 315.2216 13.29328701 44747

Отслеживайте HULIANWANG DIGUI-94 в реальном времени с AllMySat

Download on the App Store